Content
SEND FEEDBACK

Daily
Averages
Monthly
Summary
Channel Islands

GUERNSEY, CHANNEL ISLANDS


Home > Europe > Channel Islands
Elevation: 335 feet     Latitude: 49 26N     Longitude: 002 36W

WEATHER
 
SELECT A DAY
Number of Records: 254,635;   Date Range: 7/1/96 - 10/24/14
 
SHARE

PRINT THIS DATA

[ ← Previous Day ]
WEATHER ALMANAC - JANUARY 31, 2013
[ Next Day → ]
[ °C ]   °F
Weather ElementAverageHighLow
Temperature50.1 °F51.8 °F (9:20 am)46.4 °F (3:50 am)
Dewpoint47.3 °F50 °F (8:20 am)44.6 °F (3:50 am)
Humidity90 %100 % (8:20 am)77 % (12:00 pm)
Barometer30.06 in30.12 in (3:00 am)30.01 in (5:50 am)
Wind Speed21.7 mph29.9 mph (8:50 am)
Wind Gust41.4 mph (7:50 am)
Weather ElementAverage
Visibility6.3 mi
Wind DirectionWSW (240.7 °)

Weather ElementTotal
Precipitation---
Heating Degree Days15.9 (Base 65)
Averaged from 42 records on January 31, 2013
WEATHER CONDITIONS BREAKOUT
WIND DIRECTION BREAKOUT
WEATHER BY HOUR - JANUARY 31, 2013
[ °C ]   °F
Local TimeTemperatureDewpointHumidityBarometerVisibilityWind DirectionWind SpeedGust SpeedPrecipitationEventsConditions
3:00 AM47.0 °F45.0 °F91 %30.12 in12.0 miSSW (200°)17.3 mphScattered Clouds
3:50 AM46.4 °F44.6 °F93 %30.06 inSSW (210°)20.7 mphClear
4:20 AM48.2 °F44.6 °F87 %30.04 inSSW (210°)20.7 mphClear
4:50 AM48.2 °F46.4 °F93 %30.04 in6.2 miSSW (210°)19.6 mphScattered Clouds
5:20 AM48.2 °F46.4 °F93 %30.04 in6.2 miSW (220°)24.2 mphScattered Clouds
5:50 AM48.2 °F46.4 °F93 %30.01 in6.2 miSW (220°)23.0 mph35.7 mphMostly Cloudy
6:00 AM49.0 °F47.0 °F89 %30.03 in11.0 miSW (220°)23.0 mphMostly Cloudy
6:20 AM50.0 °F48.2 °F94 %30.01 in6.2 miSW (220°)25.3 mphMostly Cloudy
6:50 AM50.0 °F48.2 °F94 %30.01 in6.2 miSW (230°)24.2 mphMostly Cloudy
7:20 AM50.0 °F48.2 °F94 %30.01 in6.2 miSW (230°)28.8 mph40.3 mphMostly Cloudy
7:50 AM50.0 °F48.2 °F94 %30.01 in5.6 miSW (230°)25.3 mph41.4 mphMostly Cloudy
8:20 AM50.0 °F50.0 °F100 %30.01 in5.6 miWSW (240°)27.6 mphMostly Cloudy
8:50 AM50.0 °F50.0 °F100 %30.01 in6.2 miWSW (250°)29.9 mph41.4 mphScattered Clouds
9:00 AM51.0 °F49.0 °F91 %30.04 in6.0 miWSW (250°)29.9 mphPartly Cloudy
9:20 AM51.8 °F50.0 °F94 %30.04 in6.2 miWSW (250°)27.6 mphScattered Clouds
9:50 AM51.8 °F48.2 °F88 %30.06 in6.2 miWest (260°)29.9 mphScattered Clouds
10:20 AM50.0 °F46.4 °F87 %30.06 in6.2 miWest (260°)24.2 mphPartly Cloudy
10:50 AM50.0 °F44.6 °F82 %30.06 in6.2 miWest (260°)24.2 mph35.7 mphPartly Cloudy
11:20 AM51.8 °F46.4 °F82 %30.06 in6.2 miWSW (250°)23.0 mphPartly Cloudy
11:50 AM51.8 °F46.4 °F82 %30.06 in6.2 miWSW (250°)23.0 mphPartly Cloudy
12:00 PM51.0 °F46.0 °F77 %30.09 in7.0 miWSW (250°)23.0 mphPartly Cloudy
12:20 PM51.8 °F46.4 °F82 %30.06 in6.2 miWSW (250°)24.2 mphPartly Cloudy
12:50 PM51.8 °F48.2 °F88 %30.06 in6.2 miWSW (250°)23.0 mphPartly Cloudy
1:20 PM51.8 °F48.2 °F88 %30.09 in6.2 miWSW (250°)24.2 mphScattered Clouds
1:50 PM51.8 °F46.4 °F82 %30.09 in6.2 miWest (260°)21.9 mphPartly Cloudy
2:20 PM51.8 °F46.4 °F82 %30.06 in6.2 miWest (260°)20.7 mphPartly Cloudy
2:50 PM50.0 °F48.2 °F94 %30.06 in5.6 miWSW (250°)19.6 mphPartly Cloudy
3:00 PM51.0 °F47.0 °F83 %30.09 in6.0 miWSW (250°)19.6 mphHaze
3:20 PM50.0 °F48.2 °F94 %30.06 in5.6 miWSW (250°)18.4 mphScattered Clouds
3:50 PM50.0 °F46.4 °F87 %30.09 in5.0 miWSW (250°)20.7 mphPartly Cloudy
4:20 PM50.0 °F46.4 °F87 %30.09 in6.2 miWSW (250°)19.6 mphPartly Cloudy
4:50 PM50.0 °F46.4 °F87 %30.09 in6.2 miWSW (250°)17.3 mphScattered Clouds
5:20 PM50.0 °F46.4 °F87 %30.09 in5.6 miWSW (250°)18.4 mphPartly Cloudy
5:50 PM50.0 °F48.2 °F94 %30.09 in5.6 miWSW (240°)16.1 mphMostly Cloudy
6:00 PM50.0 °F48.0 °F89 %30.11 in6.0 miWSW (240°)16.1 mphHaze
6:20 PM50.0 °F48.2 °F94 %30.09 in6.2 miWSW (240°)18.4 mphMostly Cloudy
6:50 PM50.0 °F48.2 °F94 %30.09 in6.2 miWSW (250°)18.4 mphPartly Cloudy
7:20 PM50.0 °F48.2 °F94 %30.09 in6.2 miWSW (240°)17.3 mphPartly Cloudy
7:50 PM50.0 °F48.2 °F94 %30.09 in6.2 miWSW (240°)17.3 mphScattered Clouds
8:20 PM50.0 °F48.2 °F94 %30.06 in6.2 miWSW (240°)15.0 mphScattered Clouds
8:50 PM50.0 °F48.2 °F94 %30.06 in6.2 miWSW (240°)15.0 mphScattered Clouds
9:00 PM49.0 °F48.0 °F96 %30.09 in6.0 miWSW (240°)15.0 mphPartly Cloudy
Hourly data recorded from EGJB, located miles away from Guernsey, Channel Islands







STORIES FROM OUR PARTNERS